NWS Melbourne » East Central Florida Hourly Weather Roundup

 

ASUS42 KMLB 292011
RWRMLB
HOURLY WEATHER ROUNDUP AROUND FLORIDA
NATIONAL WEATHER SERVICE OFFICE MELBOURNE FL
400 PM EDT SUN MAY 29 2016
  
CITY           SKY/WX    TMP DP  RH WIND       PRES   REMARKS
MELBOURNE      PTSUNNY   73  66  78 S8        30.04F                  
FORT PIERCE    LGT RAIN  74  71  91 VRB3      30.06R FOG              
ORLANDO INTL   PTSUNNY   91  61  36 VRB3      30.01F                  
DAYTONA BEACH  MOSUNNY   86  71  60 E8G16     30.02F                  
VERO BEACH     TSTM      74  69  85 W23G33    30.11R VSB 1/4          
$$
...ELSEWHERE ACROSS CENTRAL FLORIDA...
  
CITY           SKY/WX    TMP DP  RH WIND       PRES   REMARKS
PATRICK AFB    CLOUDY    82  71  71 SE9       30.03F                  
KSC            SUNNY     85  70  61 SE10      30.02F                  
CAPE CANAVERAL SUNNY     85  69  58 E12       30.03S                  
ORLANDO EXEC   SUNNY     93  62  35 W7        30.01F                  
LEESBURG       SUNNY     91  65  41 S9        30.01F                  
THE VILLAGES     N/A     90  66  45 MISG      29.91F                  
SANFORD        SUNNY     91  64  40 N10       30.01F                  
DELAND           N/A     88  64  45 CALM      30.02F                  
NEW SMYRNA BCH MOSUNNY   82  72  69 E12       30.05S                  
ORMOND BEACH   MOSUNNY   84  70  61 E9        30.02F                  
WINTER HAVEN   PTSUNNY   84  66  54 NW9G22    30.03F                  
KISSIMMEE      PTSUNNY   91  63  38 VRB6      30.01F                  
OKEECHOBEE     CLOUDY    81  68  65 E14G24    30.04R                  
TAMPA          PTSUNNY   85  72  65 NW9       30.03F                  
$$
...NORTHERN FLORIDA...
  
CITY           SKY/WX    TMP DP  RH WIND       PRES   REMARKS
PALM COAST     MOSUNNY   88  70  55 NE9       30.01F                  
ST AUGUSTINE   MOSUNNY   84  67  56 E9        30.02F                  
OCALA          PTSUNNY   90  64  43 N7        30.01F                  
GAINESVILLE    MOSUNNY   90  64  42 NW8       30.02F                  
JACKSONVILLE   MOSUNNY   87  65  47 NW8       30.01F                  
TALLAHASSEE    PTSUNNY   91  58  32 N5        30.03F                  
$$
...ALONG THE SOUTHEAST COAST TO THE KEYS...
  
CITY           SKY/WX    TMP DP  RH WIND       PRES   REMARKS
STUART         MOSUNNY   86  73  66 E6        30.06F                  
WEST PALM BCH  CLOUDY    83  69  62 N5        30.05S                  
MIAMI          MOSUNNY   88  68  51 E14       30.03S                  
KEY WEST       MOSUNNY   84  72  67 S5        30.02F                  
$$
...MARINE REPORTS...
  
STATION/POSITION TIME  TEMP    WIND        PRES    WAVE   SWELL
                       AIR SEA DIR/SP/G            HT/PER HT/PER
                 (UTC) (F)     (DEG/KT/KT) (MB)    (FT/S) (FT/S)
ST AUGUSTINE FP  2000   79 80   80/  9/ 10 1017.3F
20NM E CAPE CANA 1920   79 81   50/  8/ 10 1017.7
120 E NEW SMYRNA 1950   79 80  330/  6/  6 1017.7F   4/ 9   3/ 9
TRIDENT PIER     1942   84 82   60/ 11/ 14 1017.3S
SEBASTIAN INLET  2000   77 80  280/  9     1019.0
4NM E PORT CANAV 1940      82                N/A     2/ 8
6NM NE FPR INLET 1921      82                N/A     2/ 8
SETTLEMENT PT GB 2000   81      20/  9/ 10 1018.2F
$$
  
 

 

Link to: East Central Florida Hourly Weather Roundup


USA.gov is the U.S. government's official web portal to all federal, state and local government web resources and services.